Hobbs, NM

11:50 PM MDT on April 26, 2018 (GMT -0600)
Lea County Regional

Weather History for KHOB - February, 2013

Change the Weather History Date:

Monday, February 25, 2013

  Actual Average Record
Temperature  
Mean Temperature 35 °F -  
Max Temperature 46 °F 58 °F 80 °F (1950)
Min Temperature 24 °F 33 °F 15 °F (2003)
Degree Days  
Heating Degree Days 30    
Moisture  
Dew Point 23 °F    
Average Humidity 69    
Maximum Humidity 87    
Minimum Humidity 29    
Precipitation  
Precipitation 0.01 in - - ()
Sea Level Pressure  
Sea Level Pressure 29.87 in    
Wind  
Wind Speed 13 mph (NW)    
Max Wind Speed 39 mph    
Max Gust Speed 51 mph    
Visibility 8 miles    
Events Rain , Snow    
Averages and records for this station are not official NWS values.
T = Trace of Precipitation, MM = Missing Value Source: NWS Daily Summary

Daily Weather History Graph

Daily Weather History Graph

Search for Another Location

Airport or City:

Astronomy

Feb. 25, 2013 Rise Set
Actual Time 6:24 AM MST 5:47 PM MST
Civil Twilight 6:00 AM MST 6:12 PM MST
Nautical Twilight 5:31 AM MST 6:40 PM MST
Astronomical Twilight 5:03 AM MST 7:09 PM MST
Moon 5:59 PM MST (2/25) 5:58 AM MST (2/25)
Length of Visible Light 12h 11m
Length of Day
11h 22m
Full, 100% of the Moon is Illuminated
Feb 25
Full
Feb 25
Full
Mar 4
Last Quarter
Mar 11
New
Mar 19
First Quarter

Hourly Weather History & Observations

Time (MST) Temp. Windchill Dew Point Humidity Pressure Visibility Wind Dir Wind Speed Gust Speed Precip Events Conditions
12:15 AM 37.4 °F - 30.2 °F 75% 29.73 in 10.0 mi Calm Calm - N/A   Mostly Cloudy
12:35 AM 35.6 °F - 28.4 °F 75% 29.74 in 10.0 mi Calm Calm - N/A   Scattered Clouds
12:55 AM 35.6 °F 27.5 °F 26.6 °F 70% 29.73 in 10.0 mi WNW 11.5 mph - N/A   Clear
1:15 AM 35.6 °F 29.2 °F 26.6 °F 70% 29.73 in 10.0 mi West 8.1 mph - N/A   Clear
1:35 AM 33.8 °F 24.3 °F 26.6 °F 75% 29.72 in 10.0 mi West 13.8 mph - N/A   Clear
1:55 AM 32.0 °F 23.0 °F 26.6 °F 80% 29.72 in 10.0 mi WNW 11.5 mph - N/A   Clear
2:15 AM 32.0 °F 23.6 °F 26.6 °F 80% 29.72 in 10.0 mi WNW 10.4 mph - N/A   Mostly Cloudy
2:35 AM 32.0 °F 22.1 °F 26.6 °F 80% 29.72 in 10.0 mi NW 13.8 mph - N/A   Overcast
2:55 AM 32.0 °F 22.1 °F 26.6 °F 80% 29.72 in 10.0 mi NW 13.8 mph - N/A   Mostly Cloudy
3:15 AM 32.0 °F 19.8 °F 28.4 °F 87% 29.73 in 7.0 mi NNW 20.7 mph 28.8 mph N/A   Overcast
3:35 AM 32.0 °F 19.5 °F 28.4 °F 87% 29.74 in 6.0 mi North 21.9 mph - N/A Rain Light Rain
3:55 AM 32.0 °F 20.1 °F 28.4 °F 87% 29.74 in 4.0 mi North 19.6 mph - 0.01 in Snow Light Snow
5:50 AM 32.0 °F 19.5 °F 26.6 °F 80% 29.81 in 4.0 mi WNW 21.9 mph 31.1 mph N/A Snow Light Snow
6:06 AM 30.2 °F 16.8 °F 26.6 °F 86% 29.82 in 2.5 mi WNW 23.0 mph 34.5 mph N/A Snow Light Snow
6:50 AM 30.2 °F 15.9 °F 26.6 °F 86% 29.84 in 7.0 mi WNW 26.5 mph 38.0 mph N/A Snow Light Snow
7:05 AM 32.0 °F 17.6 °F 26.6 °F 80% 29.85 in 2.5 mi WNW 29.9 mph 38.0 mph N/A Snow Light Snow
7:35 AM 32.0 °F 16.5 °F 28.4 °F 87% 29.86 in 5.0 mi WNW 35.7 mph 40.3 mph N/A Snow Light Snow
7:55 AM 32.0 °F 16.7 °F 28.4 °F 87% 29.88 in 3.0 mi WNW 34.5 mph 50.6 mph N/A Snow Light Snow
8:20 AM 32.0 °F 17.9 °F 28.4 °F 87% 29.89 in 1.8 mi WNW 28.8 mph 35.7 mph N/A Snow Light Snow
8:50 AM 32.0 °F 16.3 °F 28.4 °F 87% 29.90 in 2.0 mi WNW 36.8 mph 43.7 mph N/A Snow Light Snow
9:50 AM 32.0 °F 16.2 °F 28.4 °F 87% 29.94 in 1.0 mi WNW 38.0 mph 48.3 mph N/A Snow Light Snow
10:25 AM 33.8 °F 19.4 °F 28.4 °F 81% 29.95 in 1.0 mi WNW 33.4 mph 42.6 mph N/A   Mostly Cloudy
10:50 AM 37.4 °F 25.6 °F 26.6 °F 65% 29.95 in 10.0 mi WNW 26.5 mph 34.5 mph N/A   Scattered Clouds
11:50 AM 41.0 °F 28.5 °F 19.4 °F 42% 29.92 in 10.0 mi WNW 39.1 mph 47.2 mph N/A   Scattered Clouds
12:55 PM 39.2 °F 26.0 °F 24.8 °F 56% - 10.0 mi NW 39.1 mph 50.6 mph N/A   Clear
1:50 PM 39.2 °F 26.6 °F 24.8 °F 56% 29.92 in 10.0 mi NW 34.5 mph 46.0 mph N/A   Clear
2:50 PM 44.6 °F 34.6 °F 15.8 °F 31% 29.91 in 10.0 mi WNW 31.1 mph 36.8 mph N/A   Clear
3:50 PM 46.4 °F 37.4 °F 15.8 °F 29% 29.91 in 10.0 mi NW 28.8 mph 38.0 mph N/A   Clear
4:50 PM 44.6 °F 36.4 °F 14.0 °F 29% 29.91 in 10.0 mi NW 20.7 mph 25.3 mph N/A   Clear
5:15 PM 44.6 °F 37.4 °F 17.6 °F 34% 29.92 in 10.0 mi NNW 16.1 mph - N/A   Clear
5:35 PM 41.0 °F 34.3 °F 17.6 °F 39% 29.93 in 10.0 mi NW 11.5 mph - N/A   Clear
5:45 PM 41.0 °F 33.5 °F 17.6 °F 39% 29.92 in 10.0 mi NW 13.8 mph - N/A   Clear
5:55 PM 39.2 °F 32.5 °F 19.4 °F 45% 29.93 in 10.0 mi NNW 10.4 mph - N/A   Clear
6:15 PM 37.4 °F 34.9 °F 19.4 °F 48% 29.94 in 10.0 mi NNW 3.5 mph - N/A   Clear
6:35 PM 37.4 °F - 19.4 °F 48% 29.94 in 10.0 mi Calm Calm - N/A   Clear
7:15 PM 33.8 °F - 19.4 °F 56% 29.95 in 10.0 mi Calm Calm - N/A   Clear
7:35 PM 32.0 °F - 19.4 °F 60% 29.95 in 10.0 mi Calm Calm - N/A   Clear
7:55 PM 32.0 °F - 19.4 °F 60% 29.95 in 10.0 mi Calm Calm - N/A   Clear
8:15 PM 32.0 °F - 19.4 °F 60% 29.96 in 10.0 mi Calm Calm - N/A   Clear
8:35 PM 28.4 °F - 21.2 °F 74% 29.96 in 10.0 mi Calm Calm - N/A   Clear
8:55 PM 28.4 °F - 21.2 °F 74% 29.95 in 10.0 mi Calm Calm - N/A   Clear
9:15 PM 28.4 °F - 21.2 °F 74% 29.95 in 10.0 mi Calm Calm - N/A   Clear
9:35 PM 28.4 °F - 21.2 °F 74% 29.96 in 10.0 mi Calm Calm - N/A   Clear
9:55 PM 28.4 °F - 21.2 °F 74% 29.96 in 10.0 mi Calm Calm - N/A   Clear
10:15 PM 28.4 °F - 21.2 °F 74% 29.96 in 10.0 mi Calm Calm - N/A   Clear
10:35 PM 26.6 °F - 21.2 °F 80% 29.95 in 10.0 mi Calm Calm - N/A   Clear
10:55 PM 26.6 °F - 21.2 °F 80% 29.94 in 10.0 mi Calm Calm - N/A   Clear
11:15 PM 26.6 °F - 21.2 °F 80% 29.94 in 10.0 mi Calm Calm - N/A   Clear
11:35 PM 24.8 °F - 21.2 °F 86% 29.93 in 10.0 mi Calm Calm - N/A   Clear
11:55 PM 24.8 °F - 21.2 °F 86% 29.93 in 10.0 mi Calm Calm - N/A   Clear